| time (UTC) | temp F | wind direction | speed MPH | gust MPH | rain 1hr in | rain 24hr in | rain mn in | humidity % | barometer mb |
| 20260510220340 | 0 | 137 | 1.0 | 10.0 | 0.00 | 0.00 | 0.00 | 46 | 1022.9 |
| 20260510215817 | 0 | 95 | 5.0 | 10.0 | 0.00 | 0.00 | 0.00 | 46 | 1023.0 |
| 20260510215254 | 0 | 124 | 4.0 | 9.0 | 0.00 | 0.00 | 0.00 | 45 | 1023.1 |
| 20260510214731 | 0 | 117 | 6.0 | 9.0 | 0.00 | 0.00 | 0.00 | 42 | 1023.2 |
| 20260510214208 | 0 | 120 | 5.0 | 9.0 | 0.00 | 0.00 | 0.00 | 42 | 1023.1 |
| 20260510213645 | 0 | 107 | 7.0 | 9.0 | 0.00 | 0.00 | 0.00 | 40 | 1023.0 |
| 20260510213122 | 0 | 88 | 3.0 | 10.0 | 0.00 | 0.00 | 0.00 | 43 | 1022.9 |
| 20260510212559 | 0 | 114 | 4.0 | 10.0 | 0.00 | 0.00 | 0.00 | 45 | 1022.8 |
| 20260510212036 | 0 | 95 | 0.0 | 10.0 | 0.00 | 0.00 | 0.00 | 47 | 1022.8 |
| 20260510211513 | 0 | 126 | 4.0 | 9.0 | 0.00 | 0.00 | 0.00 | 47 | 1022.9 |
| 20260510210950 | 0 | 100 | 4.0 | 9.0 | 0.00 | 0.00 | 0.00 | 48 | 1023.0 |
| 20260510210427 | 0 | 107 | 4.0 | 9.0 | 0.00 | 0.00 | 0.00 | 52 | 1022.9 |
| 20260510205904 | 0 | 113 | 4.0 | 11.0 | 0.00 | 0.00 | 0.00 | 52 | 1022.9 |
| 20260510205341 | 0 | 93 | 6.0 | 11.0 | 0.00 | 0.00 | 0.00 | 51 | 1023.0 |
| 20260510204818 | 0 | 85 | 5.0 | 11.0 | 0.00 | 0.00 | 0.00 | 51 | 1023.1 |
| 20260510204255 | 0 | 127 | 4.0 | 12.0 | 0.00 | 0.00 | 0.00 | 52 | 1022.9 |
| 20260510203732 | 0 | 95 | 5.0 | 12.0 | 0.00 | 0.00 | 0.00 | 48 | 1023.0 |
| 20260510203210 | 0 | 92 | 4.0 | 11.0 | 0.00 | 0.00 | 0.00 | 50 | 1022.8 |
| 20260510202646 | 0 | 88 | 6.0 | 11.0 | 0.00 | 0.00 | 0.00 | 50 | 1022.8 |
| 20260510202123 | 0 | 110 | 5.0 | 9.0 | 0.00 | 0.00 | 0.00 | 52 | 1022.8 |
| 20260510201600 | 0 | 242 | 2.0 | 9.0 | 0.00 | 0.00 | 0.00 | 53 | 1022.7 |
| 20260510201037 | 0 | 106 | 1.0 | 9.0 | 0.00 | 0.00 | 0.00 | 53 | 1022.7 |
| 20260510200514 | 0 | 131 | 2.0 | 9.0 | 0.00 | 0.00 | 0.00 | 52 | 1022.6 |
| 20260510195951 | 0 | 103 | 4.0 | 11.0 | 0.00 | 0.00 | 0.00 | 53 | 1022.7 |
| 20260510195428 | 0 | 105 | 2.0 | 11.0 | 0.00 | 0.00 | 0.00 | 53 | 1022.7 |
| 20260510194905 | 0 | 107 | 4.0 | 11.0 | 0.00 | 0.00 | 0.00 | 50 | 1022.9 |
| 20260510194342 | 0 | 110 | 5.0 | 10.0 | 0.00 | 0.00 | 0.00 | 49 | 1022.7 |
| 20260510193819 | 0 | 86 | 3.0 | 10.0 | 0.00 | 0.00 | 0.00 | 49 | 1022.7 |
| 20260510193256 | 0 | 105 | 3.0 | 9.0 | 0.00 | 0.00 | 0.00 | 51 | 1022.6 |
| 20260510192733 | 0 | 100 | 3.0 | 7.0 | 0.00 | 0.00 | 0.00 | 50 | 1022.5 |
| 20260510192210 | 0 | 103 | 3.0 | 9.0 | 0.00 | 0.00 | 0.00 | 48 | 1022.6 |
| 20260510191647 | 0 | 96 | 3.0 | 9.0 | 0.00 | 0.00 | 0.00 | 48 | 1022.5 |
| 20260510191124 | 0 | 113 | 0.0 | 9.0 | 0.00 | 0.00 | 0.00 | 51 | 1022.3 |
| 20260510190601 | 0 | 106 | 4.0 | 9.0 | 0.00 | 0.00 | 0.00 | 49 | 1022.3 |
| 20260510190038 | 0 | 99 | 1.0 | 9.0 | 0.00 | 0.00 | 0.00 | 50 | 1022.3 |
| 20260510185515 | 0 | 81 | 3.0 | 8.0 | 0.00 | 0.00 | 0.00 | 49 | 1022.2 |
| 20260510184952 | 0 | 109 | 3.0 | 8.0 | 0.00 | 0.00 | 0.00 | 47 | 1022.2 |
| 20260510184429 | 0 | 103 | 3.0 | 7.0 | 0.00 | 0.00 | 0.00 | 49 | 1022.1 |
| 20260510183905 | 0 | 130 | 3.0 | 7.0 | 0.00 | 0.00 | 0.00 | 51 | 1022.0 |
| 20260510183343 | 0 | 99 | 2.0 | 8.0 | 0.00 | 0.00 | 0.00 | 51 | 1022.2 |
| 20260510182820 | 0 | 109 | 2.0 | 8.0 | 0.00 | 0.00 | 0.00 | 51 | 1022.0 |
| 20260510182257 | 0 | 95 | 2.0 | 6.0 | 0.00 | 0.00 | 0.00 | 57 | 1021.9 |
| 20260510181734 | 0 | 105 | 3.0 | 4.0 | 0.00 | 0.00 | 0.00 | 61 | 1022.1 |
| 20260510181211 | 0 | 254 | 0.0 | 4.0 | 0.00 | 0.00 | 0.00 | 61 | 1021.8 |
| 20260510180647 | 0 | 95 | 1.0 | 9.0 | 0.00 | 0.00 | 0.00 | 60 | 1021.7 |
| 20260510180125 | 0 | 102 | 2.0 | 9.0 | 0.00 | 0.00 | 0.00 | 60 | 1021.7 |
| 20260510175601 | 0 | 99 | 4.0 | 10.0 | 0.00 | 0.00 | 0.00 | 60 | 1021.7 |
| 20260510175038 | 0 | 74 | 6.0 | 10.0 | 0.00 | 0.00 | 0.00 | 59 | 1021.8 |
| 20260510174515 | 0 | 117 | 4.0 | 10.0 | 0.00 | 0.00 | 0.00 | 57 | 1021.9 |
| 20260510173952 | 0 | 120 | 2.0 | 8.0 | 0.00 | 0.00 | 0.00 | 57 | 1021.8 |
| 20260510173431 | 0 | 88 | 3.0 | 10.0 | 0.00 | 0.00 | 0.00 | 54 | 1021.6 |
| 20260510172906 | 0 | 78 | 4.0 | 10.0 | 0.00 | 0.00 | 0.00 | 54 | 1021.9 |
| 20260510172343 | 0 | 79 | 3.0 | 10.0 | 0.00 | 0.00 | 0.00 | 54 | 1021.8 |
| 20260510171820 | 0 | 84 | 2.0 | 9.0 | 0.00 | 0.00 | 0.00 | 55 | 1021.6 |
| 20260510171257 | 0 | 105 | 3.0 | 7.0 | 0.00 | 0.00 | 0.00 | 56 | 1021.5 |
| 20260510170734 | 0 | 68 | 1.0 | 7.0 | 0.00 | 0.00 | 0.00 | 57 | 1021.5 |
| 20260510170211 | 0 | 99 | 3.0 | 10.0 | 0.00 | 0.00 | 0.00 | 57 | 1021.8 |
| 20260510165648 | 0 | 92 | 1.0 | 10.0 | 0.00 | 0.00 | 0.00 | 57 | 1021.5 |
| 20260510165125 | 0 | 89 | 0.0 | 9.0 | 0.00 | 0.00 | 0.00 | 57 | 1021.2 |
| 20260510164602 | 0 | 109 | 4.0 | 11.0 | 0.00 | 0.00 | 0.00 | 58 | 1021.4 |
| 20260510164039 | 0 | 121 | 3.0 | 11.0 | 0.00 | 0.00 | 0.00 | 59 | 1021.3 |
| 20260510163517 | 0 | 106 | 1.0 | 11.0 | 0.00 | 0.00 | 0.00 | 59 | 1021.4 |
| 20260510162953 | 0 | 252 | 1.0 | 7.0 | 0.00 | 0.00 | 0.00 | 60 | 1021.3 |
| 20260510162430 | 0 | 114 | 0.0 | 7.0 | 0.00 | 0.00 | 0.00 | 61 | 1021.1 |
| 20260510161907 | 0 | 114 | 0.0 | 7.0 | 0.00 | 0.00 | 0.00 | 60 | 1020.6 |
| 20260510161344 | 0 | 245 | 2.0 | 7.0 | 0.00 | 0.00 | 0.00 | 61 | 1020.9 |
| 20260510160822 | 0 | 239 | 1.0 | 9.0 | 0.00 | 0.00 | 0.00 | 64 | 1020.6 |
| 20260510160258 | 0 | 93 | 0.0 | 9.0 | 0.00 | 0.00 | 0.00 | 64 | 1020.8 |
| 20260510155735 | 0 | 70 | 3.0 | 8.0 | 0.00 | 0.00 | 0.00 | 62 | 1020.6 |
| 20260510155212 | 0 | 96 | 2.0 | 8.0 | 0.00 | 0.00 | 0.00 | 63 | 1020.9 |
| 20260510154649 | 0 | 112 | 0.0 | 7.0 | 0.00 | 0.00 | 0.00 | 62 | 1020.4 |
| 20260510154126 | 0 | 107 | 1.0 | 7.0 | 0.00 | 0.00 | 0.00 | 64 | 1020.2 |
| 20260510153603 | 0 | 96 | 0.0 | 6.0 | 0.00 | 0.00 | 0.00 | 68 | 1020.3 |
| 20260510153040 | 0 | 254 | 3.0 | 7.0 | 0.00 | 0.00 | 0.00 | 64 | 1020.2 |
| 20260510152517 | 0 | 98 | 0.0 | 7.0 | 0.00 | 0.00 | 0.00 | 64 | 1020.0 |
| 20260510151954 | 0 | 135 | 1.0 | 7.0 | 0.00 | 0.00 | 0.00 | 66 | 1020.1 |
| 20260510151431 | 0 | 120 | 0.0 | 5.0 | 0.00 | 0.00 | 0.00 | 66 | 1019.9 |
| 20260510150908 | 0 | 85 | 0.0 | 5.0 | 0.00 | 0.00 | 0.00 | 69 | 1020.0 |
| 20260510150345 | 0 | 100 | 0.0 | 3.0 | 0.00 | 0.00 | 0.00 | 70 | 1019.7 |
| 20260510145822 | 0 | 250 | 0.0 | 4.0 | 0.00 | 0.00 | 0.00 | 69 | 1019.6 |
| 20260510145259 | 0 | 263 | 0.0 | 4.0 | 0.00 | 0.00 | 0.00 | 69 | 1019.6 |
| 20260510144736 | 0 | 259 | 0.0 | 2.0 | 0.00 | 0.00 | 0.00 | 71 | 1019.5 |
| 20260510144213 | 0 | 78 | 0.0 | 2.0 | 0.00 | 0.00 | 0.00 | 70 | 1019.6 |
| 20260510143652 | 0 | 278 | 0.0 | 4.0 | 0.00 | 0.00 | 0.00 | 72 | 1019.7 |
| 20260510143127 | 0 | 246 | 0.0 | 4.0 | 0.00 | 0.00 | 0.00 | 72 | 1019.7 |
| 20260510142604 | 0 | 102 | 0.0 | 4.0 | 0.00 | 0.00 | 0.00 | 72 | 1019.6 |
| 20260510142041 | 0 | 81 | 0.0 | 4.0 | 0.00 | 0.00 | 0.00 | 70 | 1019.5 |
| 20260510141518 | 0 | 252 | 0.0 | 4.0 | 0.00 | 0.00 | 0.00 | 73 | 1019.2 |
| 20260510140955 | 0 | 128 | 0.0 | 4.0 | 0.00 | 0.00 | 0.00 | 74 | 1019.5 |
| 20260510140432 | 0 | 33 | 0.0 | 6.0 | 0.00 | 0.00 | 0.00 | 71 | 1019.6 |
| 20260510135909 | 0 | 261 | 0.0 | 6.0 | 0.00 | 0.00 | 0.00 | 73 | 1019.3 |
| 20260510135346 | 0 | 252 | 0.0 | 6.0 | 0.00 | 0.00 | 0.00 | 75 | 1018.8 |
| 20260510134823 | 0 | 278 | 0.0 | 5.0 | 0.00 | 0.00 | 0.00 | 72 | 1019.0 |
| 20260510134300 | 0 | 242 | 0.0 | 5.0 | 0.00 | 0.00 | 0.00 | 73 | 1019.2 |
| 20260510133737 | 0 | 287 | 0.0 | 3.0 | 0.00 | 0.00 | 0.00 | 73 | 1018.9 |
| 20260510133214 | 0 | 263 | 0.0 | 1.0 | 0.00 | 0.00 | 0.00 | 74 | 1018.8 |
| 20260510132651 | 0 | 232 | 0.0 | 4.0 | 0.00 | 0.00 | 0.00 | 73 | 1018.9 |
| 20260510132128 | 0 | 214 | 1.0 | 4.0 | 0.00 | 0.00 | 0.00 | 73 | 1019.0 |
| 20260510131606 | 0 | 242 | 0.0 | 4.0 | 0.00 | 0.00 | 0.00 | 76 | 1018.9 |
| 20260510131042 | 0 | 214 | 0.0 | 4.0 | 0.00 | 0.00 | 0.00 | 76 | 1018.6 |
| 20260510130519 | 0 | 270 | 0.0 | 4.0 | 0.00 | 0.00 | 0.00 | 77 | 1018.4 |
| 20260510125956 | 0 | 257 | 1.0 | 6.0 | 0.00 | 0.00 | 0.00 | 76 | 1018.5 |
| 20260510125434 | 0 | 243 | 1.0 | 6.0 | 0.00 | 0.00 | 0.00 | 78 | 1018.6 |
| 20260510124910 | 0 | 238 | 1.0 | 6.0 | 0.00 | 0.00 | 0.00 | 78 | 1018.7 |
| 20260510124347 | 0 | 270 | 0.0 | 6.0 | 0.00 | 0.00 | 0.00 | 78 | 1018.7 |
| 20260510123824 | 0 | 266 | 0.0 | 5.0 | 0.00 | 0.00 | 0.00 | 78 | 1019.0 |
| 20260510123301 | 0 | 221 | 0.0 | 4.0 | 0.00 | 0.00 | 0.00 | 80 | 1018.7 |
| 20260510122828 | 0 | 240 | 0.0 | 4.0 | 0.00 | 0.00 | 0.00 | 79 | 1018.9 |
| 20260510122738 | 0 | 240 | 0.0 | 4.0 | 0.00 | 0.00 | 0.00 | 79 | 1018.9 |
| 20260510122215 | 0 | 254 | 0.0 | 3.0 | 0.00 | 0.00 | 0.00 | 80 | 1018.5 |
| 20260510121652 | 0 | 231 | 0.0 | 5.0 | 0.00 | 0.00 | 0.00 | 81 | 1018.6 |
| 20260510121129 | 0 | 212 | 0.0 | 5.0 | 0.00 | 0.00 | 0.00 | 75 | 1018.6 |
| 20260510120606 | 0 | 225 | 0.0 | 5.0 | 0.00 | 0.00 | 0.00 | 76 | 1018.7 |
| 20260510120043 | 0 | 260 | 0.0 | 5.0 | 0.00 | 0.00 | 0.00 | 76 | 1018.6 |
| 20260510115520 | 0 | 252 | 1.0 | 5.0 | 0.00 | 0.00 | 0.00 | 75 | 1018.8 |
| 20260510114957 | 0 | 250 | 0.0 | 4.0 | 0.00 | 0.00 | 0.00 | 78 | 1018.8 |
| 20260510114434 | 0 | 263 | 0.0 | 3.0 | 0.00 | 0.00 | 0.00 | 78 | 1019.2 |
| 20260510113911 | 0 | 96 | 1.0 | 3.0 | 0.00 | 0.00 | 0.00 | 79 | 1018.9 |
| 20260510113348 | 0 | 240 | 1.0 | 4.0 | 0.00 | 0.00 | 0.00 | 80 | 1019.3 |
| 20260510112825 | 0 | 249 | 1.0 | 4.0 | 0.00 | 0.00 | 0.00 | 82 | 1019.0 |
| 20260510112305 | 0 | 239 | 0.0 | 4.0 | 0.00 | 0.00 | 0.00 | 82 | 1018.9 |
| 20260510111739 | 0 | 271 | 0.0 | 4.0 | 0.00 | 0.00 | 0.00 | 83 | 1018.9 |
| 20260510111216 | 0 | 259 | 0.0 | 4.0 | 0.00 | 0.00 | 0.00 | 84 | 1019.0 |
| 20260510110652 | 0 | 72 | 0.0 | 5.0 | 0.00 | 0.00 | 0.00 | 84 | 1019.1 |
| 20260510110130 | 0 | 135 | 0.0 | 5.0 | 0.00 | 0.00 | 0.00 | 86 | 1019.3 |
| 20260510105607 | 0 | 92 | 0.0 | 5.0 | 0.00 | 0.00 | 0.00 | 86 | 1019.4 |
| 20260510105044 | 0 | 284 | 0.0 | 4.0 | 0.00 | 0.00 | 0.00 | 86 | 1019.6 |
| 20260510104520 | 0 | 253 | 0.0 | 4.0 | 0.00 | 0.00 | 0.00 | 88 | 1019.3 |
| 20260510103957 | 0 | 82 | 1.0 | 7.0 | 0.00 | 0.00 | 0.00 | 90 | 1019.3 |
| 20260510103434 | 0 | 109 | 0.0 | 7.0 | 0.00 | 0.00 | 0.00 | 91 | 1019.4 |
| 20260510102911 | 0 | 107 | 0.0 | 7.0 | 0.00 | 0.00 | 0.00 | 90 | 1019.6 |
| 20260510102349 | 0 | 85 | 0.0 | 8.0 | 0.00 | 0.00 | 0.00 | 91 | 1019.7 |
| 20260510101827 | 0 | 82 | 0.0 | 8.0 | 0.00 | 0.00 | 0.00 | 91 | 1019.6 |
| 20260510101302 | 0 | 215 | 2.0 | 6.0 | 0.00 | 0.00 | 0.00 | 90 | 1019.7 |
| 20260510100739 | 0 | 242 | 0.0 | 6.0 | 0.00 | 0.00 | 0.00 | 91 | 1019.3 |
| 20260510100217 | 0 | 243 | 0.0 | 3.0 | 0.00 | 0.00 | 0.00 | 92 | 1019.3 |
| 20260510095654 | 0 | 219 | 0.0 | 6.0 | 0.00 | 0.00 | 0.00 | 91 | 1019.2 |
| 20260510095130 | 0 | 60 | 0.0 | 6.0 | 0.00 | 0.00 | 0.00 | 92 | 1019.2 |
| 20260510094608 | 0 | 224 | 0.0 | 6.0 | 0.00 | 0.00 | 0.00 | 91 | 1019.4 |
| 20260510094045 | 0 | 225 | 1.0 | 5.0 | 0.00 | 0.00 | 0.00 | 91 | 1019.3 |
| 20260510093521 | 0 | 247 | 0.0 | 5.0 | 0.00 | 0.00 | 0.00 | 92 | 1019.5 |
| 20260510092958 | 0 | 239 | 0.0 | 5.0 | 0.00 | 0.00 | 0.00 | 91 | 1019.3 |
| 20260510092436 | 0 | 235 | 0.0 | 6.0 | 0.00 | 0.00 | 0.00 | 90 | 1019.3 |
| 20260510091913 | 0 | 245 | 1.0 | 6.0 | 0.00 | 0.00 | 0.00 | 90 | 1019.3 |
| 20260510091349 | 0 | 280 | 0.0 | 6.0 | 0.00 | 0.00 | 0.00 | 90 | 1019.0 |
| 20260510090827 | 0 | 79 | 0.0 | 4.0 | 0.00 | 0.00 | 0.00 | 89 | 1019.1 |
| 20260510090303 | 0 | 221 | 0.0 | 4.0 | 0.00 | 0.00 | 0.00 | 88 | 1019.0 |
| 20260510085740 | 0 | 233 | 1.0 | 5.0 | 0.00 | 0.00 | 0.00 | 89 | 1019.2 |
| 20260510085217 | 0 | 263 | 0.0 | 5.0 | 0.00 | 0.00 | 0.00 | 90 | 1019.0 |
| 20260510084655 | 0 | 299 | 0.0 | 6.0 | 0.00 | 0.00 | 0.00 | 90 | 1019.1 |
| 20260510084131 | 0 | 252 | 2.0 | 6.0 | 0.00 | 0.00 | 0.00 | 90 | 1019.0 |
| 20260510083608 | 0 | 214 | 0.0 | 6.0 | 0.00 | 0.00 | 0.00 | 89 | 1019.0 |
| 20260510083045 | 0 | 287 | 1.0 | 5.0 | 0.00 | 0.00 | 0.00 | 90 | 1018.9 |
| 20260510082522 | 0 | 235 | 0.0 | 5.0 | 0.00 | 0.00 | 0.00 | 90 | 1018.8 |
| 20260510081959 | 0 | 273 | 0.0 | 5.0 | 0.00 | 0.00 | 0.00 | 89 | 1018.9 |
| 20260510081436 | 0 | 84 | 1.0 | 5.0 | 0.00 | 0.00 | 0.00 | 88 | 1018.9 |
| 20260510080913 | 0 | 274 | 1.0 | 5.0 | 0.00 | 0.00 | 0.00 | 89 | 1019.0 |
| 20260510080351 | 0 | 235 | 0.0 | 6.0 | 0.00 | 0.00 | 0.00 | 88 | 1019.1 |
| 20260510075827 | 0 | 261 | 0.0 | 6.0 | 0.00 | 0.00 | 0.00 | 88 | 1018.8 |
| 20260510075306 | 0 | 249 | 1.0 | 3.0 | 0.00 | 0.00 | 0.00 | 87 | 1018.9 |
| 20260510074741 | 0 | 280 | 0.0 | 7.0 | 0.00 | 0.00 | 0.00 | 89 | 1018.9 |
| 20260510074219 | 0 | 92 | 0.0 | 7.0 | 0.00 | 0.00 | 0.00 | 88 | 1018.7 |
| 20260510073656 | 0 | 200 | 0.0 | 7.0 | 0.00 | 0.00 | 0.00 | 87 | 1018.7 |
| 20260510073132 | 0 | 235 | 1.0 | 7.0 | 0.00 | 0.00 | 0.00 | 88 | 1018.7 |
| 20260510072609 | 0 | 268 | 0.0 | 7.0 | 0.00 | 0.00 | 0.00 | 88 | 1019.0 |
| 20260510072046 | 0 | 91 | 0.0 | 6.0 | 0.00 | 0.00 | 0.00 | 89 | 1018.7 |
| 20260510071523 | 0 | 266 | 0.0 | 6.0 | 0.00 | 0.00 | 0.00 | 89 | 1018.8 |
| 20260510071000 | 0 | 239 | 0.0 | 6.0 | 0.00 | 0.00 | 0.00 | 89 | 1018.8 |
| 20260510070437 | 0 | 273 | 1.0 | 7.0 | 0.00 | 0.00 | 0.00 | 90 | 1018.9 |
| 20260510065914 | 0 | 254 | 0.0 | 7.0 | 0.00 | 0.00 | 0.00 | 90 | 1018.9 |
| 20260510065352 | 0 | 239 | 0.0 | 7.0 | 0.00 | 0.00 | 0.00 | 90 | 1018.7 |
| 20260510064828 | 0 | 246 | 1.0 | 5.0 | 0.00 | 0.00 | 0.00 | 91 | 1018.7 |
| 20260510064305 | 0 | 271 | 1.0 | 7.0 | 0.00 | 0.00 | 0.00 | 91 | 1019.1 |
| 20260510063743 | 0 | 266 | 1.0 | 7.0 | 0.00 | 0.00 | 0.00 | 92 | 1018.9 |
| 20260510063219 | 0 | 201 | 0.0 | 6.0 | 0.00 | 0.00 | 0.00 | 92 | 1018.9 |
| 20260510062656 | 0 | 249 | 0.0 | 6.0 | 0.00 | 0.00 | 0.00 | 91 | 1019.0 |
| 20260510062133 | 0 | 249 | 0.0 | 6.0 | 0.00 | 0.00 | 0.00 | 93 | 1019.0 |
| 20260510061610 | 0 | 205 | 2.0 | 6.0 | 0.00 | 0.00 | 0.00 | 92 | 1019.3 |
| 20260510061047 | 0 | 259 | 0.0 | 7.0 | 0.00 | 0.00 | 0.00 | 92 | 1018.8 |
| 20260510060524 | 0 | 238 | 0.0 | 7.0 | 0.00 | 0.00 | 0.00 | 92 | 1019.1 |
| 20260510060001 | 0 | 235 | 0.0 | 7.0 | 0.00 | 0.00 | 0.00 | 92 | 1019.1 |
| 20260510055439 | 0 | 277 | 3.0 | 6.0 | 0.00 | 0.00 | 0.00 | 92 | 1019.1 |
| 20260510054915 | 0 | 92 | 0.0 | 7.0 | 0.00 | 0.00 | 0.00 | 92 | 1019.0 |
| 20260510054352 | 0 | 246 | 0.0 | 7.0 | 0.00 | 0.00 | 0.00 | 90 | 1018.8 |
| 20260510053829 | 0 | 88 | 1.0 | 7.0 | 0.00 | 0.00 | 0.00 | 89 | 1018.9 |
| 20260510053306 | 0 | 75 | 0.0 | 7.0 | 0.00 | 0.00 | 0.00 | 87 | 1018.7 |
| 20260510052743 | 0 | 235 | 0.0 | 7.0 | 0.00 | 0.00 | 0.00 | 88 | 1018.9 |
| 20260510052220 | 0 | 99 | 1.0 | 14.0 | 0.00 | 0.00 | 0.00 | 88 | 1018.8 |
| 20260510051657 | 0 | 84 | 1.0 | 14.0 | 0.00 | 0.00 | 0.00 | 89 | 1018.8 |
| 20260510051134 | 0 | 275 | 3.0 | 7.0 | 0.00 | 0.00 | 0.00 | 88 | 1019.0 |
| 20260510050611 | 0 | 292 | 1.0 | 7.0 | 0.00 | 0.00 | 0.00 | 83 | 1019.0 |
| 20260510050049 | 0 | 249 | 1.0 | 7.0 | 0.00 | 0.00 | 0.00 | 87 | 1018.6 |
| 20260510045527 | 0 | 89 | 1.0 | 7.0 | 0.00 | 0.00 | 0.00 | 88 | 1018.6 |
| 20260510045002 | 0 | 252 | 0.0 | 7.0 | 0.00 | 0.00 | 0.00 | 87 | 1018.6 |
| 20260510044439 | 0 | 242 | 0.0 | 5.0 | 0.00 | 0.00 | 0.00 | 87 | 1018.8 |
| 20260510043916 | 0 | 270 | 1.0 | 8.0 | 0.00 | 0.00 | 0.00 | 85 | 1018.5 |
| 20260510043353 | 0 | 282 | 0.0 | 8.0 | 0.00 | 0.00 | 0.00 | 86 | 1018.1 |
| 20260510042830 | 0 | 92 | 2.0 | 8.0 | 0.00 | 0.00 | 0.00 | 86 | 1018.2 |
| 20260510042307 | 0 | 266 | 2.0 | 7.0 | 0.00 | 0.00 | 0.00 | 85 | 1018.3 |
| 20260510041744 | 0 | 84 | 0.0 | 7.0 | 0.00 | 0.00 | 0.00 | 84 | 1018.2 |
| 20260510041221 | 0 | 96 | 0.0 | 7.0 | 0.00 | 0.00 | 0.00 | 83 | 1017.6 |
| 20260510040658 | 0 | 78 | 0.0 | 15.0 | 0.00 | 0.00 | 0.00 | 85 | 1017.9 |
| 20260510040137 | 0 | 95 | 5.0 | 15.0 | 0.00 | 0.00 | 0.00 | 85 | 1017.8 |
| 20260510035612 | 0 | 95 | 4.0 | 15.0 | 0.00 | 0.00 | 0.00 | 84 | 1017.6 |
| 20260510035049 | 0 | 114 | 7.0 | 15.0 | 0.00 | 0.00 | 0.00 | 83 | 1017.5 |
| 20260510034527 | 0 | 78 | 6.0 | 15.0 | 0.00 | 0.00 | 0.00 | 84 | 1017.3 |
| 20260510034003 | 0 | 71 | 6.0 | 12.0 | 0.00 | 0.00 | 0.00 | 84 | 1017.3 |
| 20260510033440 | 0 | 86 | 7.0 | 11.0 | 0.00 | 0.00 | 0.00 | 84 | 1017.3 |
| 20260510032917 | 0 | 88 | 4.0 | 11.0 | 0.00 | 0.00 | 0.00 | 83 | 1017.4 |
| 20260510032354 | 0 | 96 | 6.0 | 19.0 | 0.00 | 0.00 | 0.00 | 84 | 1017.0 |
| 20260510031831 | 0 | 103 | 4.0 | 19.0 | 0.00 | 0.00 | 0.00 | 83 | 1017.0 |
| 20260510031307 | 0 | 102 | 6.0 | 19.0 | 0.00 | 0.00 | 0.00 | 82 | 1016.9 |
| 20260510030744 | 0 | 78 | 6.0 | 12.0 | 0.00 | 0.00 | 0.00 | 82 | 1017.1 |
| 20260510030221 | 0 | 98 | 3.0 | 12.0 | 0.00 | 0.00 | 0.00 | 82 | 1017.0 |
| 20260510025659 | 0 | 92 | 6.0 | 11.0 | 0.00 | 0.00 | 0.00 | 83 | 1017.0 |
| 20260510025135 | 0 | 112 | 5.0 | 14.0 | 0.00 | 0.00 | 0.00 | 82 | 1017.0 |
| 20260510024613 | 0 | 92 | 6.0 | 14.0 | 0.00 | 0.00 | 0.00 | 81 | 1016.9 |
| 20260510024049 | 0 | 75 | 2.0 | 14.0 | 0.00 | 0.00 | 0.00 | 84 | 1016.9 |
| 20260510023527 | 0 | 120 | 7.0 | 13.0 | 0.00 | 0.00 | 0.00 | 77 | 1016.8 |
| 20260510023004 | 0 | 25 | 4.0 | 14.0 | 0.00 | 0.00 | 0.00 | 77 | 1016.6 |
| 20260510022440 | 0 | 88 | 5.0 | 14.0 | 0.00 | 0.00 | 0.00 | 75 | 1016.8 |
| 20260510021917 | 0 | 89 | 6.0 | 14.0 | 0.00 | 0.00 | 0.00 | 74 | 1016.9 |
| 20260510021354 | 0 | 85 | 6.0 | 15.0 | 0.00 | 0.00 | 0.00 | 77 | 1017.0 |
| 20260510020831 | 0 | 100 | 7.0 | 15.0 | 0.00 | 0.00 | 0.00 | 74 | 1017.0 |
| 20260510020308 | 0 | 79 | 6.0 | 15.0 | 0.00 | 0.00 | 0.00 | 70 | 1017.0 |
| 20260510015745 | 0 | 100 | 7.0 | 12.0 | 0.00 | 0.00 | 0.00 | 66 | 1017.1 |
| 20260510015222 | 0 | 107 | 6.0 | 12.0 | 0.00 | 0.00 | 0.00 | 66 | 1017.2 |
| 20260510014659 | 0 | 92 | 7.0 | 12.0 | 0.00 | 0.00 | 0.00 | 67 | 1017.2 |
| 20260510014136 | 0 | 88 | 7.0 | 16.0 | 0.00 | 0.00 | 0.00 | 58 | 1017.1 |
| 20260510013613 | 0 | 92 | 7.0 | 16.0 | 0.00 | 0.00 | 0.00 | 58 | 1017.3 |
| 20260510013052 | 0 | 71 | 6.0 | 16.0 | 0.00 | 0.00 | 0.00 | 59 | 1017.3 |
| 20260510012528 | 0 | 84 | 7.0 | 13.0 | 0.00 | 0.00 | 0.00 | 56 | 1017.4 |
| 20260510012005 | 0 | 91 | 6.0 | 13.0 | 0.00 | 0.00 | 0.00 | 56 | 1017.5 |
| 20260510011441 | 0 | 106 | 7.0 | 13.0 | 0.00 | 0.00 | 0.00 | 58 | 1017.5 |
| 20260510010918 | 0 | 78 | 7.0 | 13.0 | 0.00 | 0.00 | 0.00 | 57 | 1017.8 |
| 20260510010355 | 0 | 67 | 8.0 | 13.0 | 0.00 | 0.00 | 0.00 | 59 | 1017.6 |
| 20260510005832 | 0 | 98 | 7.0 | 15.0 | 0.00 | 0.00 | 0.00 | 59 | 1017.6 |
| 20260510005309 | 0 | 82 | 8.0 | 15.0 | 0.00 | 0.00 | 0.00 | 57 | 1017.5 |
| 20260510004747 | 0 | 79 | 7.0 | 14.0 | 0.00 | 0.00 | 0.00 | 55 | 1017.6 |
| 20260510004223 | 0 | 92 | 7.0 | 14.0 | 0.00 | 0.00 | 0.00 | 54 | 1017.4 |
| 20260510003700 | 0 | 72 | 6.0 | 15.0 | 0.00 | 0.00 | 0.00 | 53 | 1017.5 |
| 20260510003137 | 0 | 133 | 6.0 | 15.0 | 0.00 | 0.00 | 0.00 | 53 | 1017.5 |
| 20260510002614 | 0 | 102 | 8.0 | 15.0 | 0.00 | 0.00 | 0.00 | 53 | 1017.4 |
| 20260510002051 | 0 | 79 | 6.0 | 15.0 | 0.00 | 0.00 | 0.00 | 51 | 1017.5 |
| 20260510001529 | 0 | 102 | 7.0 | 15.0 | 0.00 | 0.00 | 0.00 | 51 | 1017.6 |
| 20260510001005 | 0 | 98 | 5.0 | 15.0 | 0.00 | 0.00 | 0.00 | 51 | 1017.9 |
| 20260510000442 | 0 | 102 | 4.0 | 12.0 | 0.00 | 0.00 | 0.00 | 51 | 1017.8 |
| 20260509235919 | 0 | 67 | 6.0 | 12.0 | 0.00 | 0.00 | 0.00 | 52 | 1017.9 |
| 20260509235356 | 0 | 89 | 7.0 | 11.0 | 0.00 | 0.00 | 0.00 | 54 | 1017.8 |
| 20260509234833 | 0 | 120 | 6.0 | 11.0 | 0.00 | 0.00 | 0.00 | 56 | 1017.9 |
| 20260509234310 | 0 | 92 | 6.0 | 12.0 | 0.00 | 0.00 | 0.00 | 56 | 1018.0 |
| 20260509233747 | 0 | 74 | 6.0 | 12.0 | 0.00 | 0.00 | 0.00 | 53 | 1018.0 |
| 20260509233224 | 0 | 78 | 4.0 | 12.0 | 0.00 | 0.00 | 0.00 | 51 | 1018.0 |
| 20260509232701 | 0 | 78 | 7.0 | 14.0 | 0.00 | 0.00 | 0.00 | 47 | 1017.9 |
| 20260509232138 | 0 | 95 | 6.0 | 14.0 | 0.00 | 0.00 | 0.00 | 41 | 1018.1 |
| 20260509231616 | 0 | 100 | 5.0 | 15.0 | 0.00 | 0.00 | 0.00 | 50 | 1018.1 |
| 20260509231052 | 0 | 88 | 6.0 | 15.0 | 0.00 | 0.00 | 0.00 | 47 | 1018.1 |
| 20260509230529 | 0 | 81 | 6.0 | 15.0 | 0.00 | 0.00 | 0.00 | 48 | 1018.2 |
| 20260509230006 | 0 | 102 | 5.0 | 15.0 | 0.00 | 0.00 | 0.00 | 48 | 1018.2 |
| 20260509225443 | 0 | 96 | 6.0 | 13.0 | 0.00 | 0.00 | 0.00 | 47 | 1018.4 |
| 20260509224920 | 0 | 71 | 7.0 | 13.0 | 0.00 | 0.00 | 0.00 | 47 | 1018.4 |
| 20260509224357 | 0 | 100 | 7.0 | 13.0 | 0.00 | 0.00 | 0.00 | 41 | 1018.5 |
| 20260509223834 | 0 | 89 | 5.0 | 13.0 | 0.00 | 0.00 | 0.00 | 41 | 1018.6 |
| 20260509223311 | 0 | 100 | 6.0 | 11.0 | 0.00 | 0.00 | 0.00 | 44 | 1018.5 |
| 20260509222748 | 0 | 71 | 7.0 | 11.0 | 0.00 | 0.00 | 0.00 | 39 | 1018.5 |
| 20260509222225 | 0 | 110 | 3.0 | 10.0 | 0.00 | 0.00 | 0.00 | 38 | 1018.7 |
| 20260509221702 | 0 | 102 | 5.0 | 11.0 | 0.00 | 0.00 | 0.00 | 38 | 1018.7 |
| 20260509221139 | 0 | 91 | 5.0 | 11.0 | 0.00 | 0.00 | 0.00 | 38 | 1018.6 |